Location: Alpha Ridge Park
(39.3209°N, 76.9128°W)
Time: 07:42:19
(UTC-04:00)

Vanguard 2 Rocket - Pass Details

Date: 27 May 2019
Orbit: 554 x 3326 km, 32.9° (Epoch: 19 June)

Event Time Altitude Azimuth Distance (km) Brightness Sun altitude
Rises 05:41:57 0° 237° (WSW) 7,265 - -1.4°
Exits shadow 05:42:35 - 237° (WSW) 7,140 10.7 -1.3°
Reaches altitude 10° 05:46:58 10° 234° (SW) 6,281 10.5 -0.6°
Maximum altitude 06:06:14 57° 163° (SSE) 3,218 9.7 2.7°
Drops below altitude 10° 06:19:41 10° 89° (E) 4,563 12.0 5.1°
Sets 06:22:41 0° 85° (E) 5,248 12.5 5.6°
